This is the latest recevied weather packets stored in our database for station/object K4OAM-13. If no packets are shown the sender has not sent any weather packets the latest 10 day(s).
| Time | Temp. | Humidity | Pressure | Rain* | Wind** | Luminosity | Snow |
|---|---|---|---|---|---|---|---|
| 1778230139 | 3.89° C | 88% | 1017.5 hPa | - | - | - | - |
| 1778228323 | 3.89° C | 89% | 1017.7 hPa | - | - | - | - |
| 1778226223 | 3.89° C | 89% | 1017.8 hPa | - | - | - | - |
| 1778225623 | 4.44° C | 88% | 1017.8 hPa | - | - | - | - |
| 1778224734 | 4.44° C | 88% | 1017.4 hPa | - | - | - | - |
| 1778222324 | 3.89° C | 88% | 1018.3 hPa | - | - | - | - |
| 1778221424 | 4.44° C | 85% | 1018 hPa | - | - | - | - |
| 1778220223 | 4.44° C | 87% | 1018.3 hPa | - | - | - | - |
| 1778219623 | 4.44° C | 87% | 1018.2 hPa | - | - | - | - |
| 1778219333 | 4.44° C | 86% | 1018.3 hPa | - | - | - | - |
| 1778219023 | 4.44° C | 85% | 1018.5 hPa | - | - | - | - |
| 1778217223 | 4.44° C | 83% | 1018.9 hPa | - | - | - | - |
| 1778216939 | 4.44° C | 82% | 1019 hPa | - | - | - | - |
| 1778215423 | 4.44° C | 79% | 1019 hPa | - | - | - | - |
| 1778211823 | 5° C | 75% | 1019 hPa | - | - | - | - |
| 1778207023 | 4.44° C | 71% | 1019 hPa | - | - | - | - |
| 1778204623 | 3.89° C | 70% | 1019.1 hPa | - | - | - | - |
| 1778204023 | 4.44° C | 70% | 1019.2 hPa | - | - | - | - |
| 1778203123 | 4.44° C | 68% | 1019.2 hPa | - | - | - | - |
| 1778201938 | 4.44° C | 66% | 1019.4 hPa | - | - | - | - |
| 1778199523 | 4.44° C | 66% | 1020 hPa | - | - | - | - |
| 1778198923 | 4.44° C | 66% | 1020.2 hPa | - | - | - | - |
| 1778196823 | 4.44° C | 66% | 1019.9 hPa | - | - | - | - |
| 1778192623 | 4.44° C | 64% | 1019.7 hPa | - | - | - | - |
| 1778192023 | 4.44° C | 63% | 1019.6 hPa | - | - | - | - |
* Rain since midnight (hover to see other rain measurements)
** Current wind speed in m/s (hover to see current wind gust speed)